When you browse on this site, cookies collect data to enhance your experience and personalize the content and advertising you see.
Visit our Privacy Policy to learn more. By continuing to use the site, you agree to this use of cookies and data.
  • In Sweden
  • List of Countries
  • For 7 days
  • Water Temperature
  • Weather Map
  • Weather Widgets
  • user-avatar
    Login

    Hourly Weather Cavaillon

    Today, 14 November, Thursday

    Time Temperature Precipitation Wind Pressure Humidity
    00:00 +5°C° 0 mm 1 mps 741 mmHg 73%
    01:00 +5°C° 0 mm 1 mps 740 mmHg 71%
    02:00 +4°C° 0 mm 2 mps 740 mmHg 69%
    03:00 +4°C° 0 mm 2 mps 739 mmHg 67%
    04:00 +5°C° 0 mm 2 mps 739 mmHg 65%
    05:00 +4°C° 0 mm 3 mps 739 mmHg 63%
    06:00 +5°C° 0 mm 3 mps 739 mmHg 61%
    07:00 +6°C° 0.3 mm 5 mps 738 mmHg 65%
    08:00 +7°C° 0.3 mm 6 mps 738 mmHg 69%
    09:00 +7°C° 0.3 mm 8 mps 737 mmHg 74%
    10:00 +7°C° 6.5 mm 8 mps 737 mmHg 79%
    11:00 +7°C° 6.5 mm 8 mps 736 mmHg 85%
    12:00 +8°C° 6.5 mm 7 mps 736 mmHg 91%
    13:00 +6°C° 5.7 mm 7 mps 735 mmHg 91%
    14:00 +7°C° 5.7 mm 6 mps 734 mmHg 91%
    15:00 +7°C° 5.7 mm 5 mps 733 mmHg 92%
    16:00 +6°C° 2.7 mm 5 mps 733 mmHg 93%
    17:00 +6°C° 2.7 mm 4 mps 733 mmHg 93%
    18:00 +5°C° 2.7 mm 3 mps 733 mmHg 94%
    19:00 +5°C° 1.3 mm 3 mps 733 mmHg 94%
    20:00 +5°C° 1.3 mm 3 mps 734 mmHg 93%
    21:00 +4°C° 1.3 mm 3 mps 734 mmHg 93%
    22:00 +5°C° 0.1 mm 2 mps 735 mmHg 92%
    23:00 +6°C° 0.1 mm 1 mps 735 mmHg 92%

    Tomorrow, 15 November, Friday

    Time Temperature Precipitation Wind Pressure Humidity
    00:00 +5°C° 0.1 mm 1 mps 736 mmHg 92%
    01:00 +5°C° 0 mm 1 mps 736 mmHg 91%
    02:00 +5°C° 0 mm 1 mps 736 mmHg 91%
    03:00 +5°C° 0 mm 1 mps 737 mmHg 90%
    04:00 +5°C° 0 mm 1 mps 737 mmHg 89%
    05:00 +4°C° 0 mm 2 mps 738 mmHg 88%
    06:00 +3°C° 0 mm 2 mps 738 mmHg 88%
    07:00 +4°C° 0 mm 2 mps 738 mmHg 85%
    08:00 +5°C° 0 mm 2 mps 738 mmHg 83%
    09:00 +7°C° 0 mm 1 mps 738 mmHg 80%
    10:00 +6°C° 0.2 mm 2 mps 738 mmHg 79%
    11:00 +7°C° 0.2 mm 2 mps 738 mmHg 77%
    12:00 +7°C° 0.2 mm 2 mps 737 mmHg 75%
    13:00 +7°C° 0.4 mm 3 mps 737 mmHg 77%
    14:00 +7°C° 0.4 mm 3 mps 737 mmHg 79%
    15:00 +6°C° 0.4 mm 4 mps 737 mmHg 81%
    16:00 +5°C° 0.5 mm 4 mps 737 mmHg 84%
    17:00 +4°C° 0.5 mm 4 mps 737 mmHg 87%
    18:00 +4°C° 0.5 mm 4 mps 737 mmHg 90%
    19:00 +3°C° 2.4 mm 4 mps 738 mmHg 91%
    20:00 +3°C° 2.4 mm 4 mps 738 mmHg 92%
    21:00 +3°C° 2.4 mm 4 mps 738 mmHg 93%
    22:00 +3°C° 2.5 mm 4 mps 739 mmHg 93%
    23:00 +3°C° 2.5 mm 4 mps 739 mmHg 94%

    Day after tomorrow, 16 November, Saturday

    Time Temperature Precipitation Wind Pressure Humidity
    00:00 +3°C° 2.5 mm 4 mps 740 mmHg 94%
    01:00 +3°C° 1.7 mm 4 mps 740 mmHg 93%
    02:00 +3°C° 1.7 mm 3 mps 740 mmHg 93%
    03:00 +2°C° 1.7 mm 3 mps 740 mmHg 92%
    04:00 +2°C° 0.4 mm 3 mps 741 mmHg 92%
    05:00 +2°C° 0.4 mm 3 mps 741 mmHg 92%
    06:00 +3°C° 0.4 mm 2 mps 742 mmHg 92%
    07:00 +4°C° 0 mm 2 mps 743 mmHg 90%
    08:00 +4°C° 0 mm 2 mps 743 mmHg 88%
    09:00 +5°C° 0 mm 2 mps 744 mmHg 86%
    10:00 +6°C° 0 mm 2 mps 744 mmHg 82%
    11:00 +7°C° 0 mm 2 mps 744 mmHg 78%
    12:00 +8°C° 0 mm 2 mps 745 mmHg 74%
    13:00 +8°C° 0 mm 2 mps 744 mmHg 76%
    14:00 +8°C° 0 mm 2 mps 744 mmHg 77%
    15:00 +7°C° 0 mm 2 mps 744 mmHg 78%
    16:00 +6°C° 0 mm 2 mps 744 mmHg 82%
    17:00 +4°C° 0 mm 3 mps 744 mmHg 86%
    18:00 +3°C° 0 mm 3 mps 744 mmHg 90%
    19:00 +2°C° 0 mm 3 mps 744 mmHg 89%
    20:00 +2°C° 0 mm 3 mps 745 mmHg 88%
    21:00 +2°C° 0 mm 3 mps 745 mmHg 86%
    22:00 +2°C° 0 mm 3 mps 744 mmHg 85%
    23:00 +2°C° 0 mm 3 mps 744 mmHg 85%

    17 November, Sunday

    Time Temperature Precipitation Wind Pressure Humidity
    00:00 +1°C° 0 mm 3 mps 743 mmHg 84%
    01:00 0°C° 0 mm 4 mps 743 mmHg 83%
    02:00 0°C° 0 mm 4 mps 742 mmHg 83%
    03:00 0°C° 0 mm 4 mps 741 mmHg 83%
    04:00 0°C° 0 mm 5 mps 741 mmHg 83%
    05:00 0°C° 0 mm 5 mps 740 mmHg 83%
    06:00 -1°C° 0 mm 6 mps 740 mmHg 83%
    07:00 -1°C° 0 mm 7 mps 739 mmHg 81%
    08:00 0°C° 0 mm 7 mps 739 mmHg 79%
    09:00 +1°C° 0 mm 8 mps 739 mmHg 76%
    10:00 +2°C° 0 mm 8 mps 738 mmHg 74%
    11:00 +4°C° 0 mm 8 mps 738 mmHg 71%
    12:00 +5°C° 0 mm 9 mps 737 mmHg 68%
    13:00 +4°C° 0 mm 8 mps 737 mmHg 70%
    14:00 +4°C° 0 mm 8 mps 737 mmHg 72%
    15:00 +4°C° 0 mm 7 mps 737 mmHg 74%
    16:00 +3°C° 0 mm 7 mps 738 mmHg 78%
    17:00 +3°C° 0 mm 6 mps 738 mmHg 81%
    18:00 +2°C° 0 mm 6 mps 739 mmHg 84%
    19:00 +2°C° 0 mm 5 mps 739 mmHg 84%
    20:00 +2°C° 0 mm 5 mps 739 mmHg 83%
    21:00 +2°C° 0 mm 5 mps 740 mmHg 83%
    22:00 +2°C° 0 mm 5 mps 740 mmHg 83%
    23:00 +2°C° 0 mm 5 mps 740 mmHg 82%

    18 November, Monday

    Time Temperature Precipitation Wind Pressure Humidity
    00:00 +2°C° 0 mm 5 mps 740 mmHg 82%
    01:00 +1°C° 0 mm 5 mps 741 mmHg 83%
    02:00 +1°C° 0 mm 5 mps 741 mmHg 85%
    03:00 +1°C° 0 mm 4 mps 741 mmHg 86%
    04:00 +1°C° 0 mm 4 mps 741 mmHg 87%
    05:00 +1°C° 0 mm 4 mps 742 mmHg 88%
    06:00 +1°C° 0 mm 4 mps 742 mmHg 88%
    07:00 +1°C° 0 mm 4 mps 743 mmHg 85%
    08:00 +3°C° 0 mm 4 mps 743 mmHg 81%
    09:00 +3°C° 0 mm 5 mps 744 mmHg 78%
    10:00 +5°C° 0 mm 5 mps 744 mmHg 74%
    11:00 +6°C° 0 mm 5 mps 744 mmHg 71%
    12:00 +7°C° 0 mm 5 mps 744 mmHg 68%
    13:00 +6°C° 0 mm 5 mps 744 mmHg 69%
    14:00 +6°C° 0 mm 5 mps 744 mmHg 70%
    15:00 +6°C° 0 mm 5 mps 744 mmHg 70%
    16:00 +4°C° 0 mm 4 mps 745 mmHg 76%
    17:00 +3°C° 0 mm 3 mps 745 mmHg 81%
    18:00 +2°C° 0 mm 3 mps 746 mmHg 86%
    19:00 +1°C° 0 mm 3 mps 746 mmHg 87%
    20:00 +2°C° 0 mm 2 mps 746 mmHg 88%
    21:00 +2°C° 0 mm 2 mps 747 mmHg 89%
    22:00 +1°C° 0 mm 2 mps 747 mmHg 89%
    23:00 +1°C° 0 mm 2 mps 747 mmHg 89%

    19 November, Tuesday

    Time Temperature Precipitation Wind Pressure Humidity
    00:00 +2°C° 0 mm 1 mps 747 mmHg 89%
    01:00 +2°C° 0 mm 1 mps 747 mmHg 87%
    02:00 +2°C° 0 mm 1 mps 747 mmHg 86%
    03:00 +2°C° 0 mm 1 mps 747 mmHg 84%
    04:00 +2°C° 0 mm 1 mps 747 mmHg 82%
    05:00 +2°C° 0 mm 1 mps 747 mmHg 81%
    06:00 +2°C° 0 mm 1 mps 747 mmHg 79%
    07:00 +3°C° 0 mm 1 mps 747 mmHg 74%
    08:00 +4°C° 0 mm 1 mps 747 mmHg 69%
    09:00 +6°C° 0 mm 1 mps 748 mmHg 64%
    10:00 +7°C° 0 mm 1 mps 747 mmHg 61%
    11:00 +8°C° 0 mm 1 mps 747 mmHg 59%
    12:00 +9°C° 0 mm 1 mps 747 mmHg 56%
    13:00 +9°C° 0 mm 1 mps 747 mmHg 60%
    14:00 +9°C° 0 mm 1 mps 747 mmHg 63%
    15:00 +9°C° 0 mm 1 mps 746 mmHg 66%
    16:00 +8°C° 0 mm 2 mps 747 mmHg 68%
    17:00 +7°C° 0 mm 2 mps 747 mmHg 70%
    18:00 +6°C° 0 mm 2 mps 747 mmHg 71%
    19:00 +6°C° 0 mm 2 mps 747 mmHg 73%
    20:00 +5°C° 0 mm 3 mps 747 mmHg 74%
    21:00 +5°C° 0 mm 3 mps 747 mmHg 76%
    22:00 +5°C° 0 mm 3 mps 747 mmHg 76%
    23:00 +5°C° 0 mm 3 mps 747 mmHg 77%
    Show more